Other Public Products
Issued by NWS Charleston, SC

Home | Current Version | Previous Version | Text Only | Print | Product List | Glossary Off
Versions: 1 2 3 4 5 6 7 8 9 10 11 12 13 14 15 16 17 18 19 20 21 22 23 24 25 26 27 28 29 30 31 32 33 34 35 36 37 38 39 40 41 42 43 44 45 46 47 48 49 50

000
FPUS82 KCHS 161727
OPUCHS

TEST...KCHS/KSAV Gateway Observations...TEST
National Weather Service Charleston SC
1200 PM EST MON JAN 16 2017

NOTE: "fair" indicates few or no clouds below 12,000 feet with no
significant weather and/or obstructions to visibility.

SCZ050-WAZ558-NCZ071-TXZ119-213-PAZ071-DCZ001-FLZ074-172-MI076-
NYZ176-178-MAZ016-IL014-TNZ027-NJZ106-GAZ044-MD014-161800-
...Gateway Observations for Charleston International...

CITY           SKY/WX    TMP DP  RH WIND       PRES   REMARKS
Chas Airport   CLOUDY    62  57  83 NE6       30.35F HAZE
Seattle        PTCLDY    35  29  78 CALM      30.19R
Charlotte      CLOUDY    52  46  80 CALM      30.40F
Dallas DFW     MOSUNNY   55  49  80 VRB6      30.02R
Dallas Love    MOSUNNY   55  48  77 W5        30.02S
Philladelphia  PTSUNNY   38  23  55 SW5       30.46F WCI  34
Wash National  CLOUDY    42  29  59 S9        30.46F
Baltimore      CLOUDY    39  27  62 CALM      30.45F
Miami          PTSUNNY   80  61  52 SE12      30.23F
Detroit        CLOUDY    33  28  81 NE3       30.33F HAZE
Newark         PTSUNNY   40  21  46 SW5       30.44F WCI  37
Laguardia      MOSUNNY   41  21  44 CALM      30.43F
J F K          MOSUNNY   38  20  48 SW7       30.45F WCI  33
Boston Logan   MOSUNNY   37  15  40 SW18      30.35F WCI  27
Ft. Lauderdale CLOUDY    79  63  57 E15       30.23F
Chicago O`Hare LGT RAIN  34  32  92 SE7       30.21F VSB 1   WCI  28
Chicago Midway LGT RAIN  35  33  92 SE6       30.22F FOG     WCI  30
Houston Bush   PTSUNNY   77  64  64 S17G25    30.02R
Houston Hobby  MOSUNNY   76  64  66 S18G25    30.02R
Nashville      CLOUDY    64  52  64 S7        30.23F
Atlanta        CLOUDY    61  55  81 SE6       30.31F

$$

GAZ044-118-TXZ119-213-NCZ071-DCZ001-MDZ014-506-PAZ021-071-NJZ106-
NYZ176-178-MAZ106-OHZ011-021-055-MIZ076-KYZ091-ILZ014-INZ047-
MNZ060-161800-
...Gateway Observations for Savannah International...

CITY           SKY/WX    TMP DP  RH WIND       PRES   REMARKS
Savannah Arpt  PTSUNNY   70  58  65 E6        30.34F
Atlanta        CLOUDY    61  55  81 SE6       30.31F
Charlotte      CLOUDY    52  46  80 CALM      30.40F
Dallas DFW     MOSUNNY   55  49  80 VRB6      30.02R
Houston Bush   PTSUNNY   77  64  64 S17G25    30.02R
Wash National  CLOUDY    42  29  59 S9        30.46F
Wash Dulles    CLOUDY    42  30  62 S6        30.43F
Baltimore      CLOUDY    39  27  62 CALM      30.45F
Philadelphia   PTSUNNY   38  23  55 SW5       30.46F WCI  34
Newark         PTSUNNY   40  21  46 SW5       30.44F WCI  37
Laguardia      MOSUNNY   41  21  44 CALM      30.43F
J F K          MOSUNNY   38  20  48 SW7       30.45F WCI  33
Boston         MOSUNNY   37  15  40 SW18      30.35F WCI  27
Pittsburg      CLOUDY    34  26  72 CALM      30.30F
Akron          CLOUDY    36  26  67 SE5       30.29F WCI  32
Cleveland      CLOUDY    37  26  64 SE5       30.33F WCI  33
Cincinnati     CLOUDY    44  43  96 SE3       30.25F FOG
Columbus         N/A     42  39  89 S3        30.27F
Detroit        CLOUDY    33  28  81 NE3       30.33F HAZE
Chicago O`Hare LGT RAIN  34  32  92 SE7       30.21F VSB 1   WCI  28
Minneapolis    CLOUDY    24  16  71 VRB5      30.16F WCI  18
Indianapolis   CLOUDY    43  40  89 SE8       30.22F FOG

$$




USA.gov is the U.S. government's official web portal to all federal, state and local government web resources and services.